Abakan, Russia

10:26 PM +07 on November 20, 2019 (GMT +0700)
Abakan

Weather History for UNAA - September, 2019

Change the Weather History Date:

Thursday, September 5, 2019

  Actual Average Record
Temperature  
Mean Temperature 50 °F -  
Max Temperature 59 °F - - ()
Min Temperature 41 °F - - ()
Degree Days  
Heating Degree Days 15    
Moisture  
Dew Point 47 °F    
Average Humidity 92    
Maximum Humidity 100    
Minimum Humidity 67    
Precipitation  
Precipitation 0.00 in - - ()
Sea Level Pressure  
Sea Level Pressure 30.03 in    
Wind  
Wind Speed 2 mph ()    
Max Wind Speed 4 mph    
Max Gust Speed -    
Visibility 2.2 miles    
Events Fog    
T = Trace of Precipitation, MM = Missing Value Source: Averaged Metar Reports

Daily Weather History Graph

Daily Weather History Graph

Search for Another Location

Airport or City:

Astronomy

Sep. 05, 2019 Rise Set
Actual Time 6:09 AM +07 7:36 PM +07
Civil Twilight 5:32 AM +07 8:12 PM +07
Nautical Twilight 4:47 AM +07 8:57 PM +07
Astronomical Twilight 3:57 AM +07 9:47 PM +07
Moon 1:40 PM +07 (9/5) 10:31 PM +07 (9/5)
Length of Visible Light 14h 40m
Length of Day
13h 27m
Waxing Crescent, 40% of the Moon is Illuminated
Sep 5
Waxing Crescent
Sep 6
First Quarter
Sep 14
Full
Sep 22
Last Quarter
Sep 29
New

Hourly Weather History & Observations

Time (+07) Temp. Windchill Dew Point Humidity Pressure Visibility Wind Dir Wind Speed Gust Speed Precip Events Conditions
12:00 AM 48.2 °F - 48.2 °F 100% 30.01 in 3.7 mi ESE 2.2 mph - N/A   Unknown
12:30 AM 48.2 °F - 46.4 °F 93% 30.01 in 5.6 mi ESE 4.5 mph - N/A   Unknown
1:00 AM 48.2 °F - 46.4 °F 93% 30.01 in 3.1 mi ESE 2.2 mph - N/A   Mist
1:30 AM 41.0 °F - 41.0 °F 100% 30.01 in 0.1 mi ESE 2.2 mph - N/A Fog Fog
2:00 AM 41.0 °F - 41.0 °F 100% 30.01 in 0.1 mi ESE 2.2 mph - N/A Fog Fog
2:30 AM 42.8 °F - 42.8 °F 100% 30.01 in 0.1 mi Calm Calm - N/A Fog Fog
3:00 AM 44.6 °F - 44.6 °F 100% 30.01 in 0.1 mi Calm Calm - N/A Fog Fog
3:30 AM 44.6 °F - 44.6 °F 100% 30.01 in 0.1 mi East 2.2 mph - N/A Fog Fog
4:00 AM 44.6 °F 42.3 °F 44.6 °F 100% 30.04 in 0.1 mi SE 4.5 mph - N/A Fog Fog
4:30 AM 46.4 °F 44.4 °F 46.4 °F 100% 30.04 in 0.1 mi East 4.5 mph - N/A Fog Fog
5:00 AM 46.4 °F - 46.4 °F 100% 30.04 in 0.1 mi East 2.2 mph - N/A Fog Fog
5:30 AM 46.4 °F - 46.4 °F 100% 30.04 in 0.2 mi ESE 2.2 mph - N/A Fog Fog
6:00 AM 46.4 °F - 46.4 °F 100% 30.04 in 0.3 mi ESE 2.2 mph - N/A Fog Fog
7:00 AM 46.4 °F - 46.4 °F 100% 30.04 in 0.6 mi East 2.2 mph - N/A   Unknown
7:30 AM 46.4 °F - 46.4 °F 100% 30.04 in 0.7 mi ENE 2.2 mph - N/A   Scattered Clouds
8:00 AM 46.4 °F - 46.4 °F 100% 30.04 in 1.1 mi Calm Calm - N/A   Mostly Cloudy
8:30 AM 46.4 °F - 46.4 °F 100% 30.04 in 1.2 mi ENE 2.2 mph - N/A   Mostly Cloudy
9:00 AM 46.4 °F - 46.4 °F 100% 30.04 in 0.9 mi Calm Calm - N/A   Mostly Cloudy
10:30 AM 48.2 °F - 46.4 °F 93% 30.06 in 1.7 mi South 2.2 mph - N/A   Mostly Cloudy
11:30 AM 48.2 °F - 48.2 °F 100% 30.06 in 3.1 mi Calm Calm - N/A   Mostly Cloudy
12:30 PM 50.0 °F - 50.0 °F 100% 30.04 in 5.0 mi Calm Calm - N/A   Mostly Cloudy
1:00 PM 51.8 °F - 50.0 °F 94% 30.04 in 5.6 mi South 2.2 mph - N/A   Mostly Cloudy
1:30 PM 51.8 °F - 48.2 °F 88% 30.04 in 6.2 mi Calm Calm - N/A   Mostly Cloudy
2:00 PM 53.6 °F - 50.0 °F 88% 30.04 in 6.2 mi Variable 2.2 mph - N/A   Scattered Clouds
2:30 PM 55.4 °F - 48.2 °F 77% 30.04 in 6.2 mi Calm Calm - N/A   Scattered Clouds
3:00 PM 55.4 °F - 48.2 °F 77% 30.04 in 6.2 mi WNW 2.2 mph - N/A   Scattered Clouds
3:30 PM 57.2 °F - 50.0 °F 77% 30.04 in - Calm Calm - N/A   Clear
4:00 PM 57.2 °F - 48.2 °F 72% 30.04 in - WNW 2.2 mph - N/A   Clear
4:30 PM 59.0 °F - 50.0 °F 72% 30.04 in - NNW 2.2 mph - N/A   Clear
5:00 PM 59.0 °F - 50.0 °F 72% 30.01 in - Calm Calm - N/A   Clear
5:30 PM 59.0 °F - 48.2 °F 67% 30.01 in - Variable 2.2 mph - N/A   Clear
6:00 PM 59.0 °F - 50.0 °F 72% 30.01 in - West 2.2 mph - N/A   Clear
6:30 PM 57.2 °F - 51.8 °F 82% 30.01 in - WSW 2.2 mph - N/A   Clear
7:30 PM 53.6 °F - 50.0 °F 88% 30.04 in - SW 4.5 mph - N/A   Clear
8:00 PM 51.8 °F - 48.2 °F 88% 30.04 in - SW 2.2 mph - N/A   Clear
8:30 PM 51.8 °F - 50.0 °F 94% 30.04 in - Calm Calm - N/A   Clear
9:00 PM 48.2 °F - 44.6 °F 87% 30.04 in 5.6 mi SW 2.2 mph - N/A   Unknown
9:30 PM 46.4 °F - 46.4 °F 100% 30.04 in 3.1 mi Calm Calm - N/A   Mist
10:00 PM 44.6 °F - 44.6 °F 100% 30.04 in 1.7 mi Calm Calm - N/A   Mist
10:30 PM 42.8 °F - 42.8 °F 100% 30.06 in 0.4 mi Calm Calm - N/A Fog Fog
11:00 PM 46.4 °F - 44.6 °F 93% 30.06 in 0.7 mi Calm Calm - N/A   Unknown
11:30 PM 42.8 °F - 42.8 °F 100% 30.06 in 0.4 mi Calm Calm - N/A   Unknown